Temp
90 97 103 96 80 80 74 81 90 86 87 95 95 90 82 82 73 65 99 97 97 95 93 89 83 84 83 83 84 84 84 84 84 84 84 84 84 84 84 84 84 84 85 85 85 85 85 85 85
103 97 97 93 69 62 69 84 82 88 91 94 94 93 90 80 92 93 95 97 98 98 96 92 82 83 83 83 84 84 84 84 84 84 84 84 84 84 84 84 84 84 84 85 85 85 85 85 84
98 98 90 85 76 69 72 84 87 90 93 92 89 95 92 86 91 95 99 99 100 99 98 91 82 83 83 83 84 84 84 84 84 84 84 84 84 84 84 84 84 84 84 84 85 85 85 85 83
100 97 93 71 76 84 82 86 90 89 92 94 92 86 91 94 94 99 100 100 98 96 99 84 83 83 84 84 84 84 84 83 84 84 84 84 84 84 84 84 84 84 84 84 85 85 85 85 85
102 97 76 74 79 83 89 91 90 85 90 90 88 85 86 92 98 100 99 101 94 98 96 87 82 83 83 83 84 84 84 84 84 84 84 84 84 84 84 84 84 84 84 85 85 85 85 85 85
88 97 68 60 77 85 90 91 90 87 90 91 86 87 86 95 96 98 101 99 100 99 93 85 83 83 83 84 84 84 84 84 83 84 84 84 84 84 83 84 84 84 85 84 84 84 84 84 84
91 85 71 81 80 82 85 95 87 89 90 84 95 71 89 93 97 100 100 99 100 95 84 90 91 86 83 83 84 84 84 84 84 84 84 84 84 84 84 84 85 85 85 85 84 85 84 84 84
98 92 81 84 79 79 91 93 95 93 87 99 98 68 82 93 98 100 99 97 94 94 81 90 93 91 85 89 84 84 84 84 84 84 84 84 84 84 85 84 85 85 85 85 85 85 85 84 84
100 71 75 81 81 84 94 89 96 98 94 95 97 97 97 97 99 98 92 91 84 90 80 89 92 88 85 89 87 84 84 84 84 84 84 85 93 91 89 85 85 85 85 85 85 85 85 85 84
93 85 84 91 91 87 91 92 92 86 85 88 92 96 97 96 96 94 86 86 85 85 85 90 89 91 87 93 88 88 90 92 90 89 89 91 88 83 90 89 85 85 85 85 85 85 85 86 87
93 84 91 93 95 95 91 91 94 92 64 93 87 92 94 94 94 91 85 87 91 89 87 92 89 90 92 95 93 91 93 87 84 88 90 91 91 95 96 94 93 93 87 94 90 91 88 85 94
88 92 93 93 95 95 91 95 93 93 93 99 99 97 94 93 93 87 85 88 89 88 88 92 87 92 91 95 93 86 82 86 87 87 91 91 93 95 96 97 97 94 97 97 90 95 95 95 96
91 92 95 97 98 95 97 93 92 93 97 99 98 95 94 94 94 89 89 88 89 87 90 90 95 91 85 91 87 84 86 90 88 89 94 94 95 93 95 95 96 97 99 98 96 91 95 95 94
94 93 94 95 95 96 93 93 94 93 100 97 95 95 96 95 96 88 88 88 88 88 88 88 95 93 92 91 90 88 88 86 86 95 95 93 96 93 95 94 96 97 94 91 94 96 95 96 94
95 89 94 92 94 92 96 89 89 97 98 95 95 95 96 95 97 92 89 88 89 89 89 90 94 95 91 91 90 91 94 93 85 94 92 91 93 92 91 96 96 98 98 95 95 96 97 84 93
91 92 83 90 92 93 94 81 92 98 96 94 95 95 94 95 95 96 95 92 91 90 87 94 95 94 92 90 90 92 94 89 87 94 93 91 91 92 90 96 97 98 96 99 98 99 97 96 88
90 82 83 85 93 91 91 84 94 98 97 96 95 96 94 94 94 94 98 98 95 90 88 93 92 87 86 86 91 91 89 92 89 93 93 91 92 93 91 97 97 95 98 99 94 88 97 97 99
82 82 84 83 89 90 88 88 95 99 96 96 96 97 94 94 93 94 97 99 93 90 91 92 93 87 85 81 87 92 86 91 93 91 87 90 93 93 92 97 93 95 98 97 96 91 95 95 97
87 83 82 87 92 86 86 88 92 98 97 95 96 96 96 96 97 97 97 99 96 90 88 90 89 89 90 86 88 85 83 87 84 90 88 88 92 92 91 93 93 94 93 91 92 92 92 88 97
86 83 83 88 90 89 87 87 93 97 98 98 97 98 97 98 98 95 93 98 98 93 92 90 89 88 88 89 88 87 88 85 87 86 88 91 91 92 92 89 93 94 92 91 91 90 90 94 95
86 84 83 82 87 90 88 84 90 96 98 99 101 101 100 99 98 95 92 95 97 95 93 91 89 87 87 88 90 86 83 85 86 83 89 91 90 91 90 90 90 90 92 89 90 91 90 90 94
82 91 87 83 81 76 90 73 86 92 93 96 99 101 101 100 100 98 96 95 96 95 94 92 89 88 88 87 84 80 85 83 89 90 89 92 89 90 91 91 91 89 92 91 92 93 89 89 89
84 92 86 85 82 81 83 80 86 92 89 93 97 101 102 102 102 100 98 97 98 97 95 93 90 88 87 86 83 82 83 85 90 85 84 88 88 89 91 90 90 89 91 92 90 89 89 91 91
93 87 86 87 84 73 83 82 84 88 90 93 98 100 102 103 103 102 101 99 99 99 97 94 89 87 88 87 85 83 82 85 83 88 84 84 91 90 88 90 90 90 90 90 91 90 90 89 89
89 84 73 72 73 73 87 81 85 93 96 97 98 100 102 104 103 102 100 99 98 97 96 94 90 86 87 87 86 86 86 85 83 81 84 84 86 84 87 88 89 90 89 90 91 89 88 89 89
84 85 76 65 71 76 85 76 89 97 100 102 102 103 104 104 105 103 101 100 97 97 96 95 91 87 88 88 86 87 86 88 87 80 84 87 90 92 88 88 89 90 89 90 90 91 91 91 91
85 81 91 81 84 78 82 86 94 97 97 99 100 101 101 102 103 102 102 101 98 97 95 94 92 89 89 90 88 87 87 86 89 84 86 89 88 83 88 87 88 89 89 86 90 91 90 91 90
89 93 80 82 66 64 77 78 82 88 92 95 96 99 101 102 102 103 102 102 101 100 99 97 95 91 91 91 90 89 88 87 88 89 84 85 86 85 84 89 89 89 89 89 88 90 90 89 90
85 83 85 86 82 72 70 73 92 89 93 93 97 98 102 102 102 102 102 103 103 101 100 97 96 93 91 92 91 90 90 90 88 89 85 83 88 89 86 85 88 88 89 89 85 87 88 87 86
92 87 88 78 74 81 79 79 96 96 97 98 97 98 100 102 103 104 103 103 102 100 100 99 97 96 94 93 91 90 90 90 89 88 89 84 83 84 87 88 86 85 88 86 85 86 89 87 86
MSLP
1009.31 1008.45 1007.24 1006.63 1006.00 1004.30 1003.96 1003.47 1002.88 1002.93 1003.12 1003.62 1004.31 1004.39 1005.45 1006.81 1007.58 1008.65 1008.77 1010.25 1011.30 1012.24 1013.53 1014.49 1015.09 1015.42 1015.83 1015.93 1016.10 1016.41 1016.59 1016.87 1017.09 1017.34 1017.48 1017.78 1017.99 1018.16 1018.31 1018.50 1018.56 1018.54 1018.44 1018.46 1018.47 1018.50 1018.53 1018.59 1018.56
1007.62 1007.77 1007.04 1005.39 1005.89 1005.05 1004.37 1003.96 1003.65 1003.88 1004.30 1004.45 1004.55 1004.68 1005.08 1006.33 1007.46 1008.08 1009.07 1010.69 1011.18 1012.03 1013.17 1014.30 1015.24 1015.57 1015.76 1016.04 1016.22 1016.51 1016.72 1016.99 1017.23 1017.40 1017.66 1017.88 1018.06 1018.32 1018.52 1018.62 1018.69 1018.68 1018.67 1018.66 1018.65 1018.63 1018.66 1018.80 1018.88
1008.28 1007.55 1005.85 1004.47 1004.40 1004.39 1004.16 1004.06 1004.20 1004.61 1004.84 1004.51 1004.90 1005.20 1005.49 1006.91 1008.08 1008.38 1009.15 1010.61 1010.81 1011.83 1012.67 1014.44 1015.38 1015.67 1015.81 1016.14 1016.33 1016.66 1016.90 1017.11 1017.32 1017.56 1017.74 1017.95 1018.14 1018.35 1018.52 1018.65 1018.69 1018.71 1018.79 1018.86 1018.83 1018.85 1018.87 1018.98 1019.09
1006.85 1006.18 1005.72 1005.18 1004.14 1004.22 1004.31 1004.19 1004.44 1004.49 1004.84 1005.25 1005.26 1005.72 1007.27 1008.11 1008.02 1008.20 1009.95 1010.53 1010.80 1011.71 1012.67 1015.01 1015.54 1015.78 1015.97 1016.19 1016.42 1016.81 1017.07 1017.32 1017.51 1017.70 1017.86 1018.08 1018.19 1018.31 1018.50 1018.56 1018.70 1018.74 1018.93 1018.94 1018.95 1019.01 1018.98 1018.97 1018.97
1006.16 1004.97 1004.71 1004.60 1004.34 1004.42 1004.28 1004.28 1004.65 1004.74 1004.74 1005.19 1006.00 1006.06 1007.35 1008.39 1008.55 1009.04 1010.18 1010.15 1011.36 1012.04 1013.31 1015.14 1015.77 1015.92 1016.14 1016.39 1016.61 1016.92 1017.21 1017.44 1017.64 1017.78 1018.03 1018.11 1018.37 1018.40 1018.51 1018.59 1018.73 1018.83 1018.91 1018.98 1019.04 1019.07 1018.99 1018.98 1019.01
1005.11 1004.18 1005.24 1005.20 1004.52 1004.39 1004.06 1004.51 1004.67 1004.84 1004.72 1005.21 1005.83 1006.13 1007.60 1008.70 1008.90 1009.60 1010.12 1010.40 1011.35 1012.13 1013.90 1015.23 1015.92 1016.14 1016.27 1016.48 1016.67 1017.01 1017.26 1017.48 1017.74 1017.94 1018.14 1018.24 1018.43 1018.59 1018.67 1018.71 1018.80 1018.89 1018.93 1019.03 1019.07 1019.06 1019.04 1018.99 1018.96
1003.98 1003.91 1004.89 1004.13 1004.47 1004.14 1004.25 1003.80 1004.29 1004.25 1004.18 1005.49 1005.12 1006.99 1007.39 1008.39 1009.15 1009.71 1010.06 1010.74 1011.70 1012.49 1014.62 1015.16 1015.38 1016.16 1016.44 1016.57 1016.88 1017.10 1017.38 1017.57 1017.79 1018.01 1018.24 1018.37 1018.55 1018.69 1018.79 1018.85 1018.85 1018.83 1018.94 1019.02 1019.07 1019.05 1019.09 1019.06 1019.04
1003.90 1003.42 1003.98 1004.06 1003.80 1003.98 1004.04 1003.75 1003.96 1003.63 1004.18 1004.66 1004.98 1006.64 1006.97 1008.28 1009.14 1009.70 1010.26 1011.13 1011.89 1012.92 1014.96 1014.83 1014.89 1015.57 1016.23 1016.36 1016.92 1017.23 1017.42 1017.61 1017.85 1018.12 1018.29 1018.41 1018.53 1018.68 1018.71 1018.86 1018.85 1018.87 1018.89 1018.91 1018.97 1019.04 1019.03 1018.96 1018.97
1004.27 1005.33 1003.77 1003.70 1003.78 1003.72 1003.86 1003.78 1003.76 1003.71 1003.20 1004.08 1004.87 1005.08 1006.46 1008.43 1009.11 1009.75 1010.62 1011.62 1012.82 1013.58 1015.06 1014.92 1015.10 1015.55 1016.09 1015.87 1016.76 1017.23 1017.45 1017.62 1017.91 1018.12 1018.28 1018.30 1017.45 1018.05 1018.32 1018.66 1018.78 1018.78 1018.79 1018.79 1018.81 1018.87 1018.82 1018.60 1018.67
1003.68 1003.30 1003.86 1004.05 1003.75 1003.82 1003.95 1003.87 1003.44 1004.09 1004.52 1004.59 1004.88 1006.09 1007.20 1008.44 1008.98 1009.61 1011.14 1012.26 1013.28 1013.77 1014.76 1014.57 1014.79 1015.31 1015.85 1015.38 1016.41 1016.64 1016.84 1016.98 1017.20 1017.33 1017.73 1017.52 1017.51 1017.80 1017.70 1018.21 1018.68 1018.71 1018.70 1018.55 1018.54 1018.48 1018.31 1018.03 1017.73
1004.09 1003.96 1004.13 1003.73 1003.91 1003.71 1003.59 1003.52 1003.48 1003.30 1004.89 1004.11 1004.64 1005.86 1007.43 1008.36 1008.79 1009.60 1011.28 1012.19 1012.83 1013.19 1014.29 1014.33 1014.93 1015.14 1015.25 1014.79 1015.40 1016.24 1016.17 1016.65 1017.27 1017.19 1017.19 1017.04 1017.19 1017.21 1017.13 1017.38 1017.88 1017.85 1018.35 1017.55 1017.88 1017.58 1017.17 1017.50 1016.77
1003.71 1004.10 1004.16 1003.97 1003.82 1003.37 1003.17 1003.60 1003.02 1003.04 1003.43 1003.99 1004.29 1005.87 1007.22 1008.03 1008.47 1010.08 1011.15 1011.97 1012.34 1013.12 1013.92 1014.40 1014.83 1014.70 1014.95 1014.88 1015.19 1015.91 1016.48 1016.40 1016.54 1016.97 1017.20 1017.14 1016.74 1016.81 1016.51 1016.60 1016.80 1017.27 1016.96 1016.85 1017.30 1016.89 1016.77 1016.70 1016.63
1003.65 1003.93 1003.88 1003.57 1003.16 1003.05 1003.13 1002.98 1002.97 1002.96 1003.32 1004.23 1005.04 1006.16 1007.03 1007.69 1008.22 1009.85 1011.10 1011.92 1012.29 1013.09 1013.50 1013.84 1013.92 1014.73 1015.26 1015.22 1015.33 1015.81 1016.16 1015.80 1016.07 1016.55 1016.66 1016.77 1016.64 1016.82 1017.03 1016.88 1016.86 1016.70 1016.38 1016.50 1016.58 1016.24 1016.29 1016.20 1016.34
1003.99 1003.94 1003.59 1003.37 1003.05 1002.83 1002.87 1002.64 1002.55 1002.57 1003.14 1004.22 1005.31 1006.05 1006.67 1007.26 1007.81 1009.64 1010.73 1011.66 1012.19 1012.70 1013.17 1013.58 1013.63 1014.40 1014.96 1015.34 1015.49 1015.74 1016.09 1016.04 1016.02 1015.70 1016.28 1016.97 1016.43 1016.85 1016.82 1016.95 1016.81 1016.53 1016.20 1016.25 1016.16 1016.04 1015.96 1015.22 1015.15
1004.04 1003.55 1002.94 1003.23 1003.14 1002.81 1002.87 1002.03 1002.02 1002.56 1003.21 1004.00 1004.87 1005.59 1006.17 1006.96 1007.67 1008.83 1010.36 1011.18 1011.79 1012.40 1012.69 1013.23 1013.38 1014.03 1015.08 1015.31 1015.69 1015.75 1015.46 1015.35 1016.02 1015.77 1016.61 1017.07 1016.77 1017.02 1016.91 1016.34 1016.20 1015.97 1016.28 1016.64 1016.33 1015.86 1015.07 1015.76 1015.05
1003.28 1002.83 1002.03 1002.78 1003.15 1003.01 1002.71 1001.58 1001.89 1002.45 1002.94 1003.34 1004.13 1005.04 1005.93 1006.71 1007.51 1008.15 1009.35 1010.68 1011.26 1012.00 1012.53 1012.72 1013.25 1013.79 1014.77 1015.10 1015.45 1015.23 1015.48 1015.46 1015.78 1015.69 1016.46 1017.07 1017.10 1016.94 1017.05 1016.14 1016.02 1015.85 1016.18 1015.70 1015.56 1015.39 1015.03 1014.82 1014.95
1002.02 1001.64 1001.44 1002.14 1002.84 1002.92 1002.53 1001.77 1001.47 1002.05 1002.37 1002.27 1003.34 1004.13 1005.29 1006.20 1007.23 1008.04 1008.38 1009.06 1010.35 1011.37 1012.06 1012.59 1013.22 1013.79 1014.43 1014.94 1014.95 1015.21 1015.44 1015.34 1015.74 1015.94 1016.03 1016.80 1016.96 1016.88 1016.97 1015.71 1015.68 1016.41 1015.76 1015.63 1015.45 1015.68 1015.61 1014.91 1014.34
1001.31 1001.34 1001.93 1002.05 1002.19 1002.51 1002.17 1001.29 1000.85 1000.79 1001.55 1001.78 1002.24 1003.17 1004.47 1005.35 1006.43 1007.56 1008.01 1008.63 1010.11 1011.09 1011.77 1012.44 1012.93 1013.66 1014.30 1014.90 1015.12 1015.05 1015.48 1015.19 1015.30 1015.77 1015.99 1016.62 1016.67 1016.72 1016.93 1015.77 1016.28 1016.61 1015.72 1015.79 1015.93 1016.33 1016.11 1015.78 1014.83
1002.41 1002.74 1002.46 1002.18 1002.08 1002.55 1001.78 1001.20 1000.43 999.96 1000.35 1001.05 1001.43 1002.16 1003.22 1004.33 1005.44 1006.78 1007.58 1008.16 1009.22 1010.59 1011.47 1012.09 1012.75 1013.39 1013.92 1014.78 1014.84 1015.15 1015.33 1015.21 1015.40 1015.41 1015.74 1016.32 1016.51 1016.64 1016.91 1016.25 1016.51 1016.72 1016.17 1016.53 1016.77 1016.52 1015.94 1015.63 1015.07
1002.80 1002.49 1002.11 1001.91 1002.18 1002.15 1001.41 1000.52 999.89 999.26 999.08 999.78 1000.54 1000.96 1002.08 1003.13 1004.23 1005.93 1007.11 1007.48 1008.15 1009.64 1010.61 1011.54 1012.45 1013.12 1013.86 1014.04 1014.53 1014.74 1015.16 1015.10 1015.24 1015.53 1015.68 1016.17 1016.57 1016.49 1016.71 1016.79 1016.25 1016.32 1016.18 1016.58 1017.03 1016.96 1016.35 1015.39 1015.35
1002.51 1002.16 1001.83 1001.90 1002.03 1001.89 1000.65 999.64 998.27 998.12 998.44 998.87 999.23 1000.08 1000.83 1001.89 1002.91 1004.97 1006.55 1006.93 1007.69 1008.39 1009.59 1010.73 1011.87 1012.61 1013.44 1013.62 1014.00 1014.47 1014.90 1015.11 1015.05 1015.42 1015.62 1016.08 1016.40 1016.61 1016.77 1016.77 1016.79 1016.69 1016.69 1016.56 1016.87 1016.91 1016.66 1015.70 1015.51
1001.78 1001.70 1001.95 1002.22 1002.12 1000.78 1000.01 998.97 997.68 997.37 997.64 997.96 998.50 998.88 999.83 1000.83 1002.10 1003.63 1005.37 1006.25 1006.95 1007.86 1009.13 1010.04 1011.33 1012.08 1012.89 1013.61 1013.75 1014.65 1014.38 1014.43 1014.69 1014.89 1015.20 1015.26 1016.14 1016.37 1016.46 1016.63 1016.76 1017.08 1016.66 1016.51 1016.57 1016.63 1016.87 1016.66 1015.79
1001.98 1001.94 1002.14 1002.04 1001.58 1000.74 999.47 998.17 996.78 996.97 997.04 997.40 997.81 997.95 998.70 999.78 1000.95 1002.31 1004.06 1005.29 1006.16 1007.29 1008.49 1009.53 1010.70 1011.61 1012.28 1013.02 1013.48 1014.19 1014.14 1013.90 1014.36 1014.53 1014.58 1015.05 1015.47 1015.97 1016.16 1016.37 1016.50 1016.78 1016.85 1016.55 1016.65 1016.52 1016.88 1016.69 1016.22
1002.05 1002.20 1002.04 1001.46 1000.75 999.55 998.06 997.51 995.84 995.83 996.50 997.01 997.08 997.56 997.89 998.80 1000.00 1001.39 1003.02 1004.43 1005.43 1006.61 1007.74 1008.84 1009.97 1010.99 1011.77 1012.47 1013.20 1013.54 1013.69 1013.79 1013.96 1014.02 1014.40 1015.36 1014.85 1015.41 1015.85 1016.03 1016.16 1016.35 1016.60 1016.62 1016.59 1016.94 1016.98 1016.92 1016.84
1001.96 1001.56 1000.34 999.46 998.63 997.37 997.21 997.53 996.26 995.91 996.23 996.53 996.50 996.77 997.42 998.12 999.41 1000.74 1002.05 1003.34 1004.69 1005.73 1006.94 1008.03 1009.27 1010.29 1011.14 1011.78 1012.43 1012.94 1013.23 1013.62 1014.02 1014.42 1014.60 1014.39 1014.52 1014.88 1014.93 1015.76 1015.92 1016.18 1016.46 1016.44 1016.41 1016.74 1016.93 1016.89 1016.96
1001.20 1000.84 999.61 998.09 996.97 996.44 997.05 996.53 995.59 995.84 996.04 996.17 996.12 996.21 996.93 997.71 998.93 1000.14 1001.36 1002.59 1004.04 1005.12 1006.33 1007.25 1008.39 1009.57 1010.34 1010.97 1011.64 1012.31 1012.83 1013.06 1013.54 1014.19 1014.32 1014.20 1013.94 1013.95 1014.45 1015.02 1015.49 1015.67 1015.91 1016.10 1016.25 1016.64 1016.71 1016.57 1016.63
1000.41 1000.02 999.91 998.99 998.16 997.34 996.35 995.81 995.78 995.58 995.91 995.85 995.83 996.13 996.85 997.53 998.42 999.63 1000.77 1002.04 1003.35 1004.39 1005.45 1006.48 1007.55 1008.78 1009.56 1010.16 1010.96 1011.60 1012.19 1012.57 1012.42 1013.27 1013.84 1013.74 1014.15 1014.52 1014.56 1014.83 1015.35 1015.43 1015.74 1016.08 1016.13 1016.28 1016.31 1016.34 1016.57
1000.31 999.63 999.24 998.90 998.28 997.43 996.14 995.73 995.32 995.75 995.86 996.27 996.22 996.32 996.82 997.51 998.28 999.28 1000.33 1001.46 1002.57 1003.59 1004.69 1005.90 1006.82 1007.85 1008.67 1009.29 1010.11 1010.76 1011.34 1011.97 1012.27 1012.57 1013.32 1013.59 1013.54 1013.86 1013.98 1014.40 1014.74 1015.10 1015.32 1015.66 1015.97 1015.91 1015.80 1016.10 1016.31
999.57 999.66 999.53 998.80 997.93 996.88 996.18 995.88 996.23 996.30 996.42 996.54 996.29 996.62 996.71 997.40 998.12 999.00 999.90 1000.86 1001.89 1002.91 1003.80 1005.01 1005.97 1006.97 1007.85 1008.46 1009.05 1009.80 1010.46 1011.09 1011.88 1012.00 1012.90 1013.42 1013.40 1013.50 1014.05 1014.32 1014.40 1014.69 1014.93 1015.16 1015.64 1015.70 1015.56 1015.78 1016.10
998.94 998.63 998.31 998.11 997.92 997.53 996.85 995.55 995.53 996.37 996.30 996.63 996.79 997.20 997.23 997.50 998.01 998.73 999.49 1000.30 1001.21 1002.24 1002.97 1003.92 1005.00 1005.83 1006.82 1007.50 1008.27 1009.08 1009.80 1010.36 1010.97 1011.47 1011.91 1012.95 1013.24 1013.40 1013.65 1013.94 1014.29 1014.67 1014.58 1014.89 1015.31 1015.39 1015.32 1015.47 1015.57
Wind_Speed
11 14 8 5 7 4 9 6 7 11 11 10 9 10 11 12 9 2 18 20 20 20 18 16 14 15 12 12 12 11 11 11 10 9 10 10 9 8 7 6 6 5 5 6 6 7 6 6 7
12 4 7 6 3 2 3 8 13 14 10 4 6 3 10 10 11 15 16 21 20 19 18 18 13 13 15 10 11 10 9 9 9 9 8 9 8 7 6 5 4 3 3 5 6 6 6 6 8
11 6 9 5 4 6 5 9 10 10 4 6 5 7 6 11 4 12 20 22 21 19 18 17 14 14 13 11 10 8 8 7 8 8 8 8 7 6 5 3 3 3 5 6 7 7 6 5 4
6 7 7 8 7 8 10 8 8 6 6 4 12 10 10 5 8 8 22 22 19 17 18 18 15 14 12 11 9 7 7 6 7 7 7 6 7 6 6 5 4 5 6 6 6 7 5 4 2
8 6 7 8 9 5 6 7 4 3 6 4 18 7 11 4 6 19 21 18 19 15 17 15 13 13 12 9 8 7 7 7 6 6 5 6 7 6 6 5 6 8 8 6 6 5 4 3 3
6 3 9 9 7 3 3 8 4 2 4 6 5 12 10 9 13 19 20 17 18 17 16 12 12 12 9 8 7 6 7 7 6 6 6 5 6 6 7 7 7 8 8 6 5 3 3 2 1
7 4 11 1 5 6 2 1 4 9 6 3 2 7 12 13 17 19 17 17 17 21 12 13 12 11 8 7 7 7 8 7 7 5 6 7 7 6 7 7 8 7 7 5 3 1 2 2 1
6 4 5 2 1 7 9 3 4 5 8 4 4 8 13 16 18 18 16 16 12 19 10 7 11 14 9 10 8 8 8 8 7 6 6 6 9 7 8 7 8 6 5 3 2 2 3 4 5
5 3 1 5 9 5 7 4 4 2 6 2 8 10 19 20 20 18 16 12 8 15 8 9 11 9 5 8 9 8 8 8 8 8 8 10 10 10 13 10 8 5 3 4 5 5 6 9 9
9 6 8 5 4 5 4 7 5 10 20 8 13 8 18 20 19 19 17 13 11 11 14 11 8 10 9 8 10 6 9 9 8 8 9 9 3 6 7 11 8 5 6 9 10 10 11 13 5
2 6 5 4 10 6 4 6 6 7 2 3 14 13 17 19 17 17 19 17 19 15 12 9 11 10 10 6 9 6 4 4 4 5 7 9 7 5 6 6 6 7 11 9 11 11 9 11 2
3 3 5 5 4 4 4 7 9 5 8 7 11 14 16 16 15 13 18 17 17 15 16 12 12 13 9 7 5 6 3 6 5 8 7 4 6 6 4 4 5 3 6 1 3 4 5 4 0
3 6 6 6 10 1 6 7 4 6 1 5 12 14 15 14 14 17 16 13 12 15 15 15 15 12 5 5 3 6 2 4 5 8 9 7 8 4 4 3 4 4 3 4 3 4 2 4 5
7 8 10 3 5 3 8 7 4 4 7 9 11 13 13 12 12 17 17 17 16 15 16 11 15 12 10 7 4 1 4 3 3 6 8 6 7 5 6 5 7 7 5 1 2 3 4 5 7
10 12 8 1 4 4 13 13 6 7 7 10 13 12 11 11 12 23 19 17 14 12 9 11 13 14 11 9 8 7 6 7 4 5 10 8 7 5 7 6 4 5 3 3 6 6 8 8 5
14 13 12 8 4 4 11 0 8 6 8 12 14 13 12 13 12 13 22 20 17 16 13 14 12 15 14 11 8 7 3 3 2 5 8 8 8 8 7 4 8 4 4 5 3 3 5 3 6
14 12 3 4 3 7 7 11 5 7 10 12 13 15 14 13 14 13 16 20 18 10 12 15 13 9 12 7 9 8 7 6 4 4 5 10 9 7 9 7 5 2 3 2 3 6 2 7 7
12 3 4 9 1 7 12 11 10 10 10 10 14 14 15 16 16 16 17 17 19 14 13 16 13 9 11 5 6 8 4 6 7 9 6 10 8 8 6 6 5 5 5 4 5 5 6 6 4
8 11 13 11 5 7 12 14 13 9 14 12 12 15 17 16 17 18 16 18 22 16 15 15 14 12 10 10 9 5 6 6 3 5 5 8 8 9 6 9 7 6 5 5 3 6 7 6 4
12 13 13 12 2 11 15 16 17 17 13 15 15 14 16 18 20 19 17 18 19 23 20 18 16 13 11 9 10 9 9 3 6 5 6 8 10 7 8 8 5 7 2 6 3 5 7 5 4
14 14 13 13 12 16 21 17 14 12 12 12 14 15 17 18 20 21 20 19 18 19 19 18 16 15 14 11 9 4 3 5 3 4 7 10 10 11 10 8 8 2 6 3 5 5 4 7 3
18 11 6 10 12 13 16 13 15 2 5 11 13 15 17 18 19 21 22 20 19 19 18 18 18 16 15 13 10 11 10 8 9 8 10 9 12 11 11 9 7 5 6 3 4 6 4 3 5
12 10 8 11 14 15 17 11 8 6 8 10 11 14 17 19 20 22 22 21 20 18 18 18 18 16 15 15 12 11 13 9 10 7 4 10 11 12 12 10 9 8 7 6 5 2 2 3 6
12 10 13 17 14 13 17 7 9 11 5 5 4 9 14 19 20 20 22 21 18 18 18 18 18 16 16 16 17 13 12 11 6 8 6 7 9 11 11 12 9 8 7 8 6 5 5 5 6
12 13 11 12 12 12 11 6 8 3 6 5 5 8 12 17 18 20 20 20 19 20 19 18 19 18 18 19 18 17 14 14 9 9 8 9 8 7 12 12 9 9 9 9 6 6 6 6 6
15 15 13 8 9 6 8 5 0 1 1 8 4 7 13 17 18 20 21 19 19 20 20 19 20 19 19 18 17 15 15 11 11 9 11 10 8 8 3 13 11 11 10 10 7 7 9 8 7
14 10 14 19 16 13 11 4 10 8 9 6 2 5 13 15 18 19 20 19 19 20 21 20 19 19 20 20 16 15 15 15 12 11 11 7 9 5 10 11 12 11 11 8 8 9 8 6 5
14 14 9 11 11 11 11 4 6 6 7 6 2 9 12 16 17 18 18 20 19 20 19 20 20 20 19 19 17 15 16 15 13 11 10 11 9 8 4 11 12 12 11 10 8 9 10 7 6
9 12 13 16 12 12 9 8 8 4 2 5 6 4 13 16 16 17 17 19 19 18 19 19 20 20 19 18 16 16 16 16 15 13 12 10 11 8 7 9 10 10 10 11 9 8 10 8 8
12 15 13 12 15 14 10 13 8 6 3 1 1 4 4 14 15 16 17 18 18 18 18 20 19 20 19 17 14 17 15 15 16 14 14 13 10 8 11 10 10 10 11 10 10 11 11 10 10
Wind_Direction
224 225 252 259 251 206 75 70 59 52 57 35 54 5 114 101 56 99 126 120 142 131 134 143 134 129 128 123 116 115 117 122 122 131 143 152 153 147 140 128 119 98 65 61 67 84 90 86 93
268 291 242 269 13 92 333 57 59 53 55 80 111 148 79 80 63 120 131 145 143 140 146 137 139 136 130 125 117 121 123 127 134 139 142 142 146 146 143 126 109 90 76 85 95 101 91 84 89
262 269 278 269 136 108 110 84 82 81 59 14 54 23 11 74 113 135 124 147 152 144 140 124 137 132 127 121 110 116 122 136 138 141 151 147 151 154 154 143 136 125 118 103 104 97 92 88 104
251 191 236 354 63 36 68 88 88 128 126 32 45 96 105 29 139 119 142 163 137 138 130 137 141 133 123 118 116 121 122 136 133 128 127 140 153 159 158 151 149 127 110 93 96 97 90 80 95
228 244 281 174 85 79 61 63 115 351 87 68 99 63 78 86 126 127 150 162 130 138 120 142 139 133 126 126 124 127 136 140 135 126 137 137 132 144 143 136 133 120 112 116 111 79 60 52 45
277 255 13 328 119 74 69 53 177 283 91 110 321 113 87 116 140 142 163 145 136 147 135 130 146 141 136 137 133 134 144 143 145 147 135 119 115 129 118 134 123 121 125 117 92 66 45 56 56
284 324 196 355 86 108 90 111 171 181 128 215 16 148 117 139 140 150 160 136 153 121 109 149 149 142 147 149 148 145 146 146 144 130 139 139 128 123 132 141 140 133 127 122 111 49 342 341 241
283 229 168 22 94 82 75 10 357 322 81 76 324 180 146 138 154 155 155 146 147 118 131 166 149 149 169 155 151 153 149 149 146 149 148 156 143 153 156 165 144 144 143 153 186 246 274 263 239
249 104 26 58 64 46 124 292 112 308 149 133 70 35 138 145 158 160 144 140 92 131 150 169 158 124 208 152 138 149 148 147 153 161 181 187 191 174 166 105 135 157 186 222 240 248 257 255 222
314 44 29 360 38 19 74 321 276 113 283 68 128 99 122 157 165 169 143 154 137 162 166 180 137 150 195 196 140 176 158 170 188 183 171 229 268 85 111 127 156 191 219 237 232 234 236 247 227
79 31 2 342 10 28 356 239 255 302 115 133 137 134 150 167 174 178 151 172 173 191 155 184 158 174 179 154 165 169 180 215 141 143 185 166 178 200 213 146 179 202 204 230 211 212 227 253 178
278 7 353 338 304 296 317 14 299 339 27 23 90 136 159 175 176 173 165 182 181 171 157 192 170 159 204 172 209 148 178 207 167 155 194 136 250 164 204 190 186 281 177 300 172 301 347 307 109
234 351 314 325 276 339 301 254 287 283 222 109 112 146 164 183 174 164 168 176 163 160 187 188 178 154 220 166 191 123 130 210 143 156 194 151 228 182 179 167 220 236 185 228 234 227 203 240 205
10 304 284 317 343 280 328 301 214 84 114 135 151 160 171 185 180 147 167 183 181 176 180 188 167 163 203 189 147 236 165 238 238 177 147 214 235 176 184 189 215 211 253 223 245 15 305 239 169
284 274 256 120 352 348 314 240 186 79 148 159 175 179 165 169 178 161 171 186 178 184 176 184 172 166 196 200 177 212 200 186 169 211 132 213 253 159 296 223 245 227 133 296 228 242 226 165 131
249 260 250 119 317 71 298 359 98 158 182 167 186 178 173 166 176 179 166 182 190 180 179 185 186 177 185 190 185 207 222 234 179 182 158 202 219 178 220 183 217 113 246 222 241 276 309 310 122
216 272 328 137 148 307 302 305 175 179 189 197 182 174 182 172 173 183 184 179 184 169 174 186 184 192 169 173 185 223 201 213 190 149 231 175 200 192 261 238 142 155 221 300 25 275 339 320 324
346 311 312 295 48 294 300 296 304 180 212 230 175 184 185 179 178 179 191 191 163 170 192 188 187 185 153 152 212 216 197 207 204 181 190 164 200 219 233 242 65 247 222 218 19 334 4 294 353
345 295 281 277 298 301 292 291 289 265 181 215 211 188 181 194 174 174 192 188 167 170 181 184 192 188 192 167 216 201 228 223 176 225 162 153 222 206 204 269 165 253 299 31 342 281 223 308 346
262 276 270 266 306 279 294 289 283 260 234 203 202 201 192 189 170 177 186 190 194 177 188 185 190 192 201 190 206 182 214 221 205 197 174 196 201 224 206 267 246 202 305 161 255 311 302 251 74
253 265 285 301 316 280 261 271 292 201 202 220 209 202 188 189 181 174 185 195 193 188 188 185 191 190 194 221 201 195 179 226 241 166 191 192 208 206 228 202 265 345 293 200 191 233 299 315 299
260 262 296 291 267 285 321 296 268 198 211 196 222 199 196 191 191 171 184 193 192 187 192 187 189 195 193 205 177 197 203 203 212 213 212 188 203 210 213 222 215 239 266 277 191 220 267 268 308
270 310 268 268 271 277 269 255 259 158 165 169 197 211 196 189 187 175 186 189 191 184 186 193 188 194 196 191 216 185 227 204 192 228 177 204 177 211 214 217 209 216 227 251 282 268 228 272 283
255 266 250 250 251 261 252 255 259 147 116 179 167 178 200 191 188 185 178 181 188 183 185 187 185 192 195 195 205 204 203 241 215 207 190 202 216 188 214 213 219 220 231 257 196 251 247 283 318
227 235 252 221 218 243 87 274 266 121 177 244 263 207 191 182 184 181 180 177 186 184 188 184 186 193 194 196 198 208 210 217 208 203 220 212 211 230 184 203 210 199 218 258 215 215 281 224 266
205 251 270 300 276 9 120 253 195 209 205 266 265 219 175 180 180 181 183 182 185 185 189 191 185 194 196 199 200 201 206 216 209 200 210 225 246 227 238 177 211 215 204 213 239 226 233 232 224
247 240 263 283 286 267 259 172 256 208 222 32 62 171 169 178 174 180 179 185 184 190 189 193 188 194 198 199 198 201 203 218 214 180 218 227 212 238 210 180 204 209 216 223 214 233 254 246 249
255 269 264 220 262 273 274 179 216 134 18 346 263 178 175 177 176 176 180 186 186 195 191 194 194 195 198 202 198 201 203 206 222 206 191 230 211 193 202 190 198 212 201 213 213 244 219 234 243
182 234 243 279 302 312 297 62 30 123 154 325 120 264 169 180 177 178 184 186 190 195 194 196 196 193 199 200 195 202 202 201 208 211 195 228 221 207 210 205 204 207 207 209 210 248 279 206 223
291 297 255 228 230 238 270 296 209 149 155 258 107 149 285 179 186 188 190 189 191 194 199 193 200 198 198 195 194 196 200 202 200 212 195 195 218 233 198 210 206 223 215 220 215 225 245 229 240